| time (UTC) | temp F | wind direction | speed MPH | gust MPH | rain 1hr in | rain 24hr in | rain mn in | humidity % | barometer mb |
| 20260504081335 | 94 | 0.0 | 0.0 | 0.00 | 0.00 | 0.00 | 33 | 989.7 | |
| 20260504045336 | 97 | 0.0 | 0.0 | 0.00 | 0.00 | 0.00 | 31 | 990.4 | |
| 20260504043336 | 97 | 0.0 | 0.0 | 0.00 | 0.00 | 0.00 | 32 | 990.5 | |
| 20260504041336 | 96 | 0.0 | 0.0 | 0.00 | 0.00 | 0.00 | 33 | 990.6 | |
| 20260504035337 | 95 | 0.0 | 0.0 | 0.00 | 0.00 | 0.00 | 35 | 990.6 | |
| 20260504033336 | 94 | 0.0 | 0.0 | 0.00 | 0.00 | 0.00 | 35 | 990.9 | |
| 20260504031336 | 93 | 0.0 | 0.0 | 0.00 | 0.00 | 0.00 | 36 | 990.9 | |
| 20260504025336 | 92 | 0.0 | 0.0 | 0.00 | 0.00 | 0.00 | 36 | 991.3 | |
| 20260504023336 | 93 | 0.0 | 0.0 | 0.00 | 0.00 | 0.00 | 36 | 991.0 | |
| 20260504021336 | 92 | 0.0 | 0.0 | 0.00 | 0.00 | 0.00 | 37 | 990.8 | |
| 20260504015336 | 92 | 0.0 | 0.0 | 0.00 | 0.00 | 0.00 | 37 | 990.9 | |
| 20260504013336 | 92 | 0.0 | 0.0 | 0.00 | 0.00 | 0.00 | 38 | 991.1 | |
| 20260504011336 | 91 | 0.0 | 0.0 | 0.00 | 0.00 | 0.00 | 39 | 991.3 | |
| 20260504005336 | 91 | 0.0 | 0.0 | 0.00 | 0.00 | 0.00 | 40 | 991.2 | |
| 20260504003336 | 90 | 0.0 | 0.0 | 0.00 | 0.00 | 0.00 | 43 | 990.9 | |
| 20260504001335 | 92 | 0.0 | 0.0 | 0.00 | 0.00 | 0.00 | 40 | 990.6 | |
| 20260503235336 | 92 | 0.0 | 0.0 | 0.00 | 0.00 | 0.00 | 40 | 990.3 | |
| 20260503233336 | 93 | 0.0 | 0.0 | 0.00 | 0.00 | 0.00 | 40 | 990.4 | |
| 20260503231335 | 93 | 0.0 | 0.0 | 0.00 | 0.00 | 0.00 | 41 | 990.9 | |
| 20260503225336 | 93 | 0.0 | 0.0 | 0.00 | 0.00 | 0.00 | 43 | 990.6 | |
| 20260503223336 | 93 | 0.0 | 0.0 | 0.00 | 0.00 | 0.00 | 43 | 990.2 | |
| 20260503221336 | 93 | 0.0 | 0.0 | 0.00 | 0.00 | 0.00 | 43 | 990.4 | |
| 20260503215336 | 93 | 0.0 | 0.0 | 0.00 | 0.00 | 0.00 | 43 | 990.4 | |
| 20260503213336 | 93 | 0.0 | 0.0 | 0.00 | 0.00 | 0.00 | 42 | 990.3 | |
| 20260503211336 | 93 | 0.0 | 0.0 | 0.00 | 0.00 | 0.00 | 42 | 990.3 | |
| 20260503205336 | 93 | 0.0 | 0.0 | 0.00 | 0.00 | 0.00 | 43 | 990.4 | |
| 20260503203335 | 93 | 0.0 | 0.0 | 0.00 | 0.00 | 0.00 | 43 | 990.1 | |
| 20260503201336 | 93 | 0.0 | 0.0 | 0.00 | 0.00 | 0.00 | 44 | 990.1 | |
| 20260503195336 | 93 | 0.0 | 0.0 | 0.00 | 0.00 | 0.00 | 44 | 989.7 | |
| 20260503193336 | 94 | 0.0 | 0.0 | 0.00 | 0.00 | 0.00 | 44 | 989.6 | |
| 20260503191336 | 93 | 0.0 | 0.0 | 0.00 | 0.00 | 0.00 | 45 | 989.5 | |
| 20260503185335 | 93 | 0.0 | 0.0 | 0.00 | 0.00 | 0.00 | 45 | 989.5 | |
| 20260503183336 | 93 | 0.0 | 0.0 | 0.00 | 0.00 | 0.00 | 45 | 989.5 | |
| 20260503181336 | 93 | 0.0 | 0.0 | 0.00 | 0.00 | 0.00 | 45 | 989.7 | |
| 20260503175336 | 93 | 0.0 | 0.0 | 0.00 | 0.00 | 0.00 | 45 | 989.5 | |
| 20260503173336 | 93 | 0.0 | 0.0 | 0.00 | 0.00 | 0.00 | 45 | 989.7 | |
| 20260503171336 | 93 | 0.0 | 0.0 | 0.00 | 0.00 | 0.00 | 45 | 989.7 | |
| 20260503131336 | 94 | 0.0 | 0.0 | 0.00 | 0.00 | 0.00 | 47 | 988.8 |